Wind_Speed
16 16 16 15 16 16 16 16 16 16 18 19 20 20 21 21 21 22 22 23 23 23 23 24 24 24 24 24 24 24 24 23 23 23 24 23 23 24 24 24 23 23 23 23
16 16 15 15 16 17 17 17 17 18 19 20 21 21 22 22 22 23 23 24 25 25 25 25 25 25 24 24 25 25 25 24 23 23 24 24 24 24 23 23 23 23 23 23
15 15 15 15 15 16 17 18 18 19 19 20 21 22 23 23 24 24 25 26 27 27 26 26 25 25 24 24 24 24 24 24 24 23 23 23 23 22 22 22 22 22 23 23
13 13 15 15 15 16 18 18 18 19 20 21 22 23 23 24 25 25 26 26 26 26 25 25 24 23 23 23 22 22 22 23 23 22 22 21 21 21 21 20 20 21 20 19
13 14 14 16 16 16 16 18 19 20 21 22 22 23 23 24 25 25 26 26 25 25 24 23 22 22 21 21 20 20 20 20 20 20 19 19 19 19 19 18 17 17 16 15
12 13 15 16 15 15 16 19 19 20 20 21 21 21 22 23 24 24 24 24 24 24 22 21 21 20 19 19 19 18 17 16 16 16 16 16 16 16 16 16 15 15 15 14
11 12 14 14 13 14 16 18 18 18 19 19 19 21 22 23 23 23 23 22 22 21 20 19 19 18 17 17 15 14 14 14 13 12 12 12 12 13 13 13 13 12 12 11
11 12 13 12 13 14 15 16 16 17 18 18 19 20 21 22 22 21 21 20 19 18 18 17 17 16 14 13 11 10 10 10 9 10 10 10 9 10 10 11 11 10 11 10
10 11 11 11 12 12 12 14 15 15 16 17 19 20 20 20 20 20 19 18 17 17 16 15 14 13 10 9 8 7 7 7 7 8 8 8 8 8 9 9 10 9 8 8
8 9 9 10 10 10 11 12 12 13 14 16 18 18 18 19 19 18 17 16 15 14 13 12 11 9 7 6 5 4 4 5 6 6 6 6 6 7 8 7 7 7 7 7
7 7 8 9 9 9 9 10 11 12 14 16 17 17 17 18 17 16 15 14 13 12 11 9 7 6 4 3 2 3 3 4 4 5 7 6 6 6 6 6 6 6 6 5
6 6 7 8 8 8 8 9 10 12 13 15 16 16 16 16 16 15 13 12 10 9 7 6 4 2 1 0 1 2 3 3 3 5 6 6 6 6 6 5 5 4 5 5
4 4 5 5 5 6 8 9 9 11 13 14 15 15 15 15 14 13 12 10 9 7 5 4 3 2 2 3 3 3 3 4 4 5 6 7 7 6 6 6 5 4 4 4
3 2 3 4 5 6 7 8 9 10 12 13 14 14 13 13 13 12 11 9 7 6 5 4 4 4 5 5 5 5 6 6 6 6 7 7 7 6 6 6 6 6 5 5
1 2 2 3 4 4 6 7 9 10 11 12 13 13 13 13 12 11 10 8 7 7 6 6 6 6 6 6 7 7 7 7 8 8 9 8 8 8 8 8 8 8 8 7
0 1 2 2 2 3 5 6 8 10 11 12 12 12 12 12 11 11 10 9 9 8 9 9 8 8 8 8 8 8 8 9 9 9 10 10 10 10 10 10 10 10 10 9
1 1 1 1 2 3 5 7 8 10 11 11 11 11 11 12 11 11 11 11 10 10 10 10 10 10 10 10 10 10 11 11 11 11 11 11 11 12 12 12 12 11 11 11
1 1 1 1 2 4 5 7 8 9 10 11 11 11 11 11 11 11 11 11 11 11 11 11 11 11 12 12 12 13 13 13 13 13 13 13 14 14 14 13 13 12 12 12
0 0 0 1 2 3 5 6 8 9 10 10 10 10 11 11 11 11 11 11 11 12 12 12 12 12 13 13 14 14 15 15 15 15 15 15 15 15 15 15 14 14 14 14
1 1 1 1 1 2 4 6 7 8 9 9 9 10 11 11 12 12 12 12 12 12 12 12 12 12 13 14 15 16 16 16 16 16 17 17 17 16 16 16 15 15 15 15
3 3 2 2 0 1 3 5 6 8 8 9 10 10 11 12 12 12 12 13 12 12 12 12 13 13 14 15 15 16 17 17 17 17 17 17 17 17 16 16 16 16 15 15
5 4 3 2 1 1 2 3 4 6 7 9 10 11 12 12 12 12 13 13 13 13 13 13 14 14 15 16 16 17 17 17 17 17 17 17 17 16 16 16 16 15 15 15
7 6 5 3 2 1 0 1 2 4 5 7 9 10 11 12 12 12 13 13 13 13 14 14 14 15 15 16 16 17 17 17 17 17 17 16 16 16 16 16 16 15 15 15
9 8 7 5 4 3 2 1 1 2 3 5 7 8 9 10 11 12 12 13 13 13 13 14 14 15 15 15 16 16 16 16 16 16 16 16 15 15 15 15 15 15 14 14
11 10 9 8 6 5 4 3 3 2 2 3 4 6 7 8 10 11 11 12 12 13 13 14 14 14 15 15 15 15 16 15 15 15 15 15 14 14 14 14 13 13 13 12
13 13 12 10 9 8 7 6 5 4 3 3 3 4 5 6 8 9 10 10 11 12 12 13 13 13 14 14 15 15 15 15 14 14 14 14 13 13 13 12 12 11 11 10
16 16 15 14 12 11 10 9 8 6 5 4 3 3 4 4 5 6 7 8 9 9 10 11 12 12 12 13 13 13 13 13 12 12 12 12 11 11 11 10 10 9 9 8
Wind_Direction
245 249 253 257 263 267 271 274 276 280 283 287 290 292 296 298 299 300 300 300 300 300 299 296 294 293 291 287 284 283 281 279 277 274 271 269 267 265 263 260 258 257 255 255
250 252 254 259 264 268 271 274 277 282 286 288 290 292 296 298 300 301 301 302 302 301 299 297 294 292 289 286 283 281 278 276 276 274 270 269 268 266 264 263 261 257 254 254
250 252 256 262 263 265 270 275 280 284 288 290 293 294 296 297 299 301 301 302 302 301 299 297 294 292 289 286 282 279 277 274 275 274 270 267 266 264 262 262 260 257 255 255
248 250 252 258 262 268 273 278 281 284 289 293 296 297 297 298 299 300 301 301 300 299 297 296 294 292 289 286 282 279 276 274 274 272 267 264 263 260 259 258 259 256 257 253
250 252 257 262 266 270 275 280 283 286 291 296 299 300 300 300 300 301 302 301 300 299 298 298 296 292 287 286 283 282 279 274 271 266 261 259 258 256 258 257 255 254 251 244
255 254 257 263 270 271 275 281 286 289 293 298 300 301 303 304 304 304 303 302 302 303 301 299 297 293 290 287 285 282 277 272 266 262 259 257 255 252 252 250 250 248 244 240
254 255 259 266 271 272 277 284 291 295 297 300 301 303 305 306 307 307 306 305 305 304 301 299 298 296 292 290 285 280 272 266 260 256 252 250 249 243 241 239 240 239 238 236
252 255 260 267 272 276 281 286 291 295 298 302 305 306 308 310 311 311 310 309 308 306 303 301 300 298 294 291 284 278 266 259 252 246 245 242 242 236 230 230 230 232 233 236
250 253 260 270 276 283 289 292 295 297 301 305 310 312 314 315 315 316 315 313 310 307 305 303 303 301 295 290 286 278 261 251 242 236 230 226 225 224 222 222 222 226 229 232
244 250 263 274 280 290 297 302 305 307 309 313 316 317 319 319 320 320 318 316 314 312 310 306 304 301 294 287 282 269 249 232 227 218 214 215 214 213 216 217 211 214 219 222
243 251 267 278 282 289 297 305 311 315 320 322 322 323 323 325 326 326 325 323 320 316 314 313 312 306 297 285 276 244 216 198 202 207 205 199 195 192 193 197 197 199 198 200
246 258 272 279 282 290 304 312 317 322 325 328 329 329 328 330 332 334 334 333 333 332 333 331 330 332 327 210 173 164 169 172 169 165 166 168 172 173 171 173 171 172 181 188
247 264 277 277 284 300 313 320 325 330 334 336 335 333 333 335 338 341 343 345 347 352 2 18 41 66 94 124 134 137 142 145 144 149 154 156 154 152 150 148 150 150 151 157
254 269 279 284 294 307 319 325 329 334 338 342 343 344 346 349 350 353 357 3 11 23 36 55 72 86 101 111 117 117 118 123 126 134 140 139 137 134 131 131 135 135 132 133
241 268 290 298 305 321 331 333 338 344 347 352 354 356 359 2 4 8 15 24 35 48 62 79 87 93 97 105 114 118 117 118 121 124 126 125 124 124 123 123 124 122 119 116
280 301 319 332 340 340 342 344 347 351 356 1 2 5 9 13 18 24 32 41 54 67 75 84 86 89 95 102 111 116 116 118 119 119 120 120 120 121 121 120 119 117 114 110
14 351 346 360 6 1 2 356 356 360 5 9 11 16 22 28 33 40 48 57 68 75 83 88 87 88 93 100 108 112 114 116 117 117 119 119 119 119 120 119 118 114 110 106
352 4 35 47 24 6 359 357 359 6 10 15 20 27 32 36 43 50 56 66 74 79 85 88 91 92 93 98 103 108 110 111 113 114 115 115 116 116 116 115 113 110 108 106
348 38 89 43 8 11 10 7 9 14 17 22 29 35 40 44 49 55 63 71 78 82 86 90 91 92 94 97 101 106 107 108 109 111 112 114 115 115 114 113 111 109 107 106
215 196 189 177 22 10 11 11 14 20 25 33 40 44 50 54 57 61 69 75 80 84 88 92 95 97 98 100 103 106 107 108 109 111 112 113 113 113 112 110 108 107 106 104
208 201 191 188 234 1 14 19 24 30 37 46 52 56 58 62 65 68 73 80 84 86 89 93 98 101 102 103 104 106 107 108 109 110 111 111 111 110 110 109 109 107 105 103
212 208 207 211 228 305 7 24 35 43 51 57 61 64 65 67 70 75 79 82 86 90 92 96 100 103 105 106 107 107 108 109 110 111 111 111 111 110 110 110 109 107 105 103
217 217 219 219 217 223 307 29 56 63 62 62 65 67 68 69 73 79 82 85 89 92 95 98 100 103 106 108 109 110 110 111 112 112 112 111 111 110 110 110 108 106 105 102
220 222 222 220 217 213 213 197 133 92 75 71 71 73 74 75 77 79 82 86 90 94 97 100 103 105 108 110 111 112 113 113 113 113 112 111 110 110 110 109 107 105 103 99
222 223 223 221 216 211 207 204 191 160 119 96 86 84 83 83 83 84 86 88 92 95 98 102 105 109 111 113 114 114 114 114 114 113 112 111 111 110 110 109 107 104 101 97
225 224 222 221 219 216 213 211 205 190 169 144 120 105 99 95 93 92 93 95 96 98 101 104 106 110 113 115 116 116 116 116 116 114 113 113 112 111 110 108 106 103 100 95
227 225 223 222 222 220 219 219 216 208 198 188 171 148 132 122 114 107 105 104 104 105 107 109 110 112 115 117 118 119 119 119 118 118 117 116 115 114 112 109 106 102 98 93
Height
5782 5783 5784 5784 5785 5785 5785 5784 5784 5783 5781 5779 5777 5775 5773 5770 5768 5765 5763 5760 5758 5755 5753 5751 5749 5747 5745 5743 5742 5741 5741 5740 5740 5740 5739 5740 5740 5741 5741 5741 5742 5742 5743 5745
5778 5779 5780 5780 5780 5780 5780 5779 5779 5778 5776 5773 5771 5769 5767 5765 5762 5760 5757 5754 5751 5749 5746 5744 5742 5740 5738 5737 5736 5735 5734 5734 5733 5733 5733 5733 5734 5734 5735 5735 5736 5737 5738 5739
5774 5775 5776 5777 5776 5776 5775 5775 5774 5773 5771 5768 5766 5764 5761 5759 5756 5754 5751 5748 5745 5742 5739 5737 5735 5733 5731 5730 5729 5728 5727 5726 5726 5726 5726 5726 5727 5727 5728 5729 5730 5731 5732 5733
5769 5771 5772 5774 5772 5771 5771 5769 5768 5767 5765 5763 5760 5758 5755 5752 5750 5747 5744 5741 5738 5735 5732 5730 5728 5726 5724 5723 5722 5721 5720 5720 5719 5719 5720 5720 5721 5721 5722 5723 5724 5725 5726 5727
5765 5767 5768 5768 5767 5766 5766 5764 5763 5761 5759 5757 5754 5751 5749 5746 5743 5740 5737 5734 5731 5728 5725 5723 5721 5719 5717 5716 5715 5714 5713 5713 5713 5713 5713 5714 5715 5716 5717 5718 5719 5721 5722 5723
5761 5762 5763 5764 5762 5761 5762 5759 5758 5756 5754 5751 5749 5746 5744 5740 5736 5733 5730 5727 5724 5721 5719 5716 5715 5713 5711 5710 5709 5708 5708 5707 5707 5708 5708 5709 5710 5711 5713 5714 5715 5717 5718 5719
5757 5758 5758 5758 5757 5758 5758 5756 5752 5750 5748 5746 5744 5742 5738 5734 5731 5727 5724 5721 5718 5715 5713 5711 5709 5707 5706 5705 5704 5703 5702 5702 5703 5703 5704 5705 5706 5707 5709 5710 5712 5713 5714 5716
5753 5754 5755 5753 5753 5753 5752 5750 5747 5746 5744 5741 5739 5736 5732 5728 5725 5721 5718 5715 5712 5710 5708 5705 5704 5702 5701 5700 5699 5698 5698 5698 5699 5700 5701 5702 5703 5704 5706 5707 5709 5710 5712 5713
5750 5751 5750 5749 5748 5748 5747 5745 5743 5741 5739 5737 5734 5731 5727 5724 5720 5717 5714 5711 5708 5705 5703 5701 5700 5698 5697 5697 5696 5696 5696 5696 5697 5698 5699 5700 5701 5702 5704 5705 5707 5708 5709 5711
5745 5746 5746 5745 5745 5744 5743 5741 5740 5738 5736 5733 5730 5727 5723 5719 5716 5712 5709 5706 5704 5701 5699 5698 5696 5695 5694 5694 5694 5694 5694 5694 5695 5696 5697 5698 5700 5701 5702 5704 5705 5706 5707 5709
5742 5743 5743 5742 5742 5741 5740 5739 5737 5735 5733 5730 5727 5723 5720 5716 5713 5709 5706 5703 5700 5698 5696 5695 5693 5693 5692 5692 5692 5692 5693 5693 5694 5695 5696 5698 5699 5700 5701 5703 5704 5705 5706 5707
5740 5740 5740 5740 5739 5738 5738 5736 5735 5733 5730 5727 5724 5720 5717 5714 5710 5707 5704 5701 5698 5696 5694 5693 5692 5692 5691 5691 5692 5692 5692 5693 5694 5695 5696 5697 5699 5700 5701 5702 5704 5705 5706 5707
5737 5738 5738 5737 5737 5737 5736 5735 5733 5731 5728 5725 5722 5718 5715 5712 5708 5705 5702 5699 5697 5695 5693 5692 5692 5692 5692 5692 5692 5692 5693 5694 5694 5695 5697 5698 5699 5700 5702 5703 5704 5705 5706 5707
5736 5736 5736 5736 5736 5735 5735 5734 5732 5729 5727 5724 5720 5717 5714 5711 5707 5704 5701 5699 5697 5695 5694 5693 5693 5692 5692 5692 5693 5693 5694 5694 5695 5696 5697 5699 5700 5701 5702 5703 5705 5706 5706 5707
5735 5735 5735 5735 5735 5734 5734 5733 5731 5729 5726 5723 5720 5717 5714 5710 5707 5704 5701 5699 5697 5696 5695 5694 5694 5694 5694 5694 5694 5695 5695 5696 5697 5698 5699 5700 5701 5702 5703 5705 5706 5706 5707 5708
5735 5735 5734 5735 5735 5734 5734 5733 5731 5729 5726 5723 5720 5717 5714 5711 5708 5705 5703 5701 5699 5698 5697 5696 5696 5696 5696 5696 5696 5697 5697 5698 5699 5700 5701 5702 5703 5704 5705 5706 5707 5708 5709 5710
5735 5735 5735 5735 5735 5735 5734 5733 5731 5729 5726 5724 5721 5718 5715 5712 5710 5707 5705 5703 5702 5701 5700 5700 5699 5699 5699 5699 5699 5699 5700 5701 5701 5702 5703 5704 5705 5707 5708 5709 5710 5711 5711 5712
5736 5736 5736 5736 5736 5735 5735 5733 5732 5730 5727 5725 5722 5719 5717 5715 5712 5710 5709 5707 5706 5705 5704 5703 5703 5703 5703 5702 5702 5703 5703 5704 5705 5706 5707 5707 5709 5710 5711 5712 5713 5714 5714 5715
5736 5736 5736 5736 5736 5736 5735 5734 5732 5730 5728 5726 5724 5721 5719 5717 5715 5714 5712 5711 5710 5709 5708 5708 5707 5707 5707 5707 5707 5707 5708 5708 5709 5710 5710 5711 5712 5714 5715 5715 5716 5717 5718 5718
5737 5737 5737 5737 5737 5737 5736 5735 5734 5732 5730 5728 5726 5724 5722 5720 5719 5717 5715 5714 5714 5713 5713 5712 5712 5711 5711 5711 5712 5712 5712 5713 5713 5714 5715 5716 5717 5718 5719 5720 5720 5721 5722 5722
5737 5737 5738 5738 5738 5738 5737 5736 5735 5734 5732 5730 5728 5727 5725 5723 5722 5721 5720 5719 5718 5717 5717 5716 5716 5716 5716 5716 5716 5717 5717 5717 5718 5719 5720 5721 5722 5722 5723 5724 5725 5725 5726 5726
5736 5737 5738 5738 5738 5738 5738 5737 5737 5736 5735 5733 5732 5730 5729 5727 5726 5725 5724 5723 5722 5721 5721 5721 5721 5721 5721 5721 5721 5722 5722 5723 5723 5724 5725 5726 5726 5727 5728 5728 5729 5730 5730 5730
5736 5737 5738 5738 5739 5739 5739 5739 5739 5738 5737 5737 5735 5734 5733 5732 5730 5729 5728 5728 5726 5726 5726 5726 5725 5725 5726 5726 5726 5727 5727 5728 5728 5729 5730 5730 5731 5732 5732 5733 5733 5734 5734 5734
5735 5736 5737 5738 5738 5739 5740 5740 5740 5740 5740 5739 5738 5738 5737 5736 5734 5733 5733 5732 5731 5730 5730 5730 5730 5730 5730 5731 5731 5731 5732 5733 5733 5734 5734 5735 5735 5736 5736 5737 5737 5738 5738 5738
5734 5735 5736 5737 5738 5739 5740 5741 5741 5741 5741 5741 5741 5740 5740 5739 5738 5738 5737 5736 5736 5735 5735 5735 5734 5735 5735 5735 5736 5736 5737 5737 5738 5738 5739 5739 5739 5740 5740 5741 5741 5741 5741 5741
5732 5733 5735 5736 5738 5739 5740 5741 5742 5742 5742 5743 5743 5742 5742 5742 5741 5741 5740 5740 5740 5739 5739 5739 5739 5739 5739 5739 5740 5740 5741 5741 5742 5742 5743 5743 5743 5744 5744 5744 5744 5744 5744 5744
5729 5731 5733 5734 5736 5737 5739 5740 5741 5742 5743 5743 5744 5744 5744 5744 5744 5744 5743 5743 5743 5743 5743 5743 5743 5743 5743 5743 5744 5744 5745 5745 5745 5746 5746 5746 5746 5747 5747 5747 5747 5747 5747 5746